contact: severine.martini@mio.osupytheas.fr, dominique.lefevre@mio.osupytheas.fr
Project:EMSO Ligure-ouest http://www.emso-fr.org/EMSO-France
Sensor Optode, line 4330 Serial 272 
DOI : "https://doi.org/10.17882/97948" 
Title:EMSO Ligure Ouest : Data BathyDock capteur Optode - deploiement "2023-04-28"
Datetime,Profondeur,Latitude,Longitude,optode_type,serial,O2_concentration,O2_saturation,Temperature,Calibrated_Phase,Temp_Compensated_Phase,phase_blue_light,phase_red_light,Amplitude_blue_light,Amplitude_red_light,thermistor_bridge
time,m,degree_north,degree_east,1,1,umol.l-1,%,degree_C,degree,degree,degree,degree,mV,mV,mV
2023-12-08T00:00:08,2420,42.8014,5.9826,4330,272,186.637,57.162,13.310,36.028,36.608,41.193,4.585,295.7,543.9,291.2
2023-12-08T00:03:07,2420,42.8014,5.9826,4330,272,186.619,57.158,13.311,36.029,36.609,41.193,4.584,295.7,543.8,291.2
2023-12-08T00:06:08,2420,42.8014,5.9826,4330,272,186.373,57.085,13.313,36.044,36.624,41.210,4.586,295.6,543.8,291.1
2023-12-08T00:09:08,2420,42.8014,5.9826,4330,272,186.305,57.061,13.311,36.050,36.630,41.208,4.578,295.6,543.8,291.2
2023-12-08T00:12:07,2420,42.8014,5.9826,4330,272,186.367,57.082,13.312,36.045,36.625,41.213,4.588,295.7,543.7,291.2
2023-12-08T00:15:07,2420,42.8014,5.9826,4330,272,186.282,57.058,13.314,36.049,36.629,41.212,4.583,295.7,543.6,291.1
2023-12-08T00:18:07,2420,42.8014,5.9826,4330,272,186.221,57.039,13.314,36.054,36.633,41.216,4.583,295.7,543.8,291.1
2023-12-08T00:21:08,2420,42.8014,5.9826,4330,272,186.407,57.100,13.317,36.040,36.620,41.206,4.586,295.8,543.8,291.0
2023-12-08T00:24:07,2420,42.8014,5.9826,4330,272,186.313,57.066,13.313,36.048,36.627,41.214,4.586,295.8,543.7,291.1
2023-12-08T00:27:07,2420,42.8014,5.9826,4330,272,186.404,57.093,13.312,36.043,36.623,41.206,4.583,295.7,543.7,291.2
2023-12-08T00:30:07,2420,42.8014,5.9826,4330,272,186.383,57.085,13.311,36.044,36.624,41.214,4.590,295.7,543.8,291.2
2023-12-08T00:33:07,2420,42.8014,5.9826,4330,272,186.328,57.068,13.311,36.048,36.628,41.214,4.586,295.7,543.7,291.2
2023-12-08T00:36:07,2420,42.8014,5.9826,4330,272,186.512,57.127,13.313,36.035,36.615,41.202,4.587,295.7,543.7,291.1
2023-12-08T00:39:07,2420,42.8014,5.9826,4330,272,186.148,57.015,13.312,36.059,36.639,41.223,4.584,295.7,543.7,291.2
2023-12-08T00:42:08,2420,42.8014,5.9826,4330,272,186.357,57.079,13.312,36.046,36.626,41.214,4.588,295.7,543.8,291.2
2023-12-08T00:45:07,2420,42.8014,5.9826,4330,272,186.618,57.158,13.312,36.029,36.609,41.192,4.583,295.7,543.6,291.2
2023-12-08T00:48:07,2420,42.8014,5.9826,4330,272,186.422,57.099,13.312,36.041,36.621,41.204,4.583,295.7,543.8,291.2
2023-12-08T00:51:08,2420,42.8014,5.9826,4330,272,186.520,57.129,13.312,36.035,36.615,41.205,4.590,295.7,543.9,291.2
2023-12-08T00:54:07,2420,42.8014,5.9826,4330,272,186.356,57.081,13.314,36.045,36.625,41.210,4.585,295.8,543.7,291.1
2023-12-08T00:57:07,2420,42.8014,5.9826,4330,272,186.069,56.990,13.312,36.064,36.644,41.230,4.586,295.8,543.8,291.2
2023-12-08T01:00:07,2420,42.8014,5.9826,4330,272,186.342,57.073,13.311,36.047,36.627,41.214,4.587,295.8,543.8,291.2
2023-12-08T01:03:07,2420,42.8014,5.9826,4330,272,186.553,57.138,13.312,36.033,36.613,41.205,4.592,295.8,543.8,291.2
2023-12-08T01:06:07,2420,42.8014,5.9826,4330,272,186.477,57.117,13.313,36.038,36.618,41.207,4.590,295.7,543.7,291.1
2023-12-08T01:09:07,2420,42.8014,5.9826,4330,272,186.369,57.085,13.314,36.044,36.624,41.212,4.588,295.7,543.8,291.1
2023-12-08T01:12:07,2420,42.8014,5.9826,4330,272,186.463,57.109,13.310,36.040,36.620,41.209,4.589,295.7,543.7,291.2
2023-12-08T01:15:07,2420,42.8014,5.9826,4330,272,186.329,57.076,13.317,36.045,36.625,41.209,4.584,295.7,543.8,291.0
2023-12-08T01:18:07,2420,42.8014,5.9826,4330,272,186.417,57.103,13.317,36.039,36.619,41.202,4.583,295.7,543.7,291.0
2023-12-08T01:21:08,2420,42.8014,5.9826,4330,272,186.424,57.102,13.315,36.040,36.620,41.202,4.582,295.8,543.8,291.1
2023-12-08T01:24:07,2420,42.8014,5.9826,4330,272,186.422,57.098,13.311,36.042,36.622,41.206,4.584,295.8,543.7,291.2
2023-12-08T01:27:07,2420,42.8014,5.9826,4330,272,186.348,57.082,13.317,36.043,36.623,41.208,4.584,295.7,543.7,291.0
2023-12-08T01:30:08,2420,42.8014,5.9826,4330,272,186.286,57.060,13.314,36.049,36.629,41.213,4.584,295.7,543.7,291.1
2023-12-08T01:33:07,2420,42.8014,5.9826,4330,272,186.489,57.120,13.313,36.037,36.617,41.202,4.585,295.8,543.7,291.1
2023-12-08T01:36:07,2420,42.8014,5.9826,4330,272,186.205,57.037,13.316,36.053,36.633,41.217,4.584,295.8,543.7,291.0
2023-12-08T01:39:08,2420,42.8014,5.9826,4330,272,186.364,57.080,13.311,36.046,36.626,41.209,4.583,295.8,543.9,291.2
2023-12-08T01:42:08,2420,42.8014,5.9826,4330,272,186.443,57.106,13.313,36.039,36.619,41.209,4.589,295.7,543.8,291.1
2023-12-08T01:45:07,2420,42.8014,5.9826,4330,272,186.344,57.075,13.313,36.046,36.626,41.213,4.587,295.8,543.8,291.1
2023-12-08T01:48:07,2420,42.8014,5.9826,4330,272,186.286,57.057,13.312,36.050,36.630,41.214,4.584,295.7,543.8,291.2
2023-12-08T01:51:07,2420,42.8014,5.9826,4330,272,186.405,57.091,13.311,36.044,36.624,41.209,4.585,295.8,543.8,291.2
2023-12-08T01:54:08,2420,42.8014,5.9826,4330,272,186.226,57.041,13.314,36.053,36.633,41.212,4.579,295.8,543.8,291.1
2023-12-08T01:57:07,2420,42.8014,5.9826,4330,272,186.383,57.086,13.311,36.044,36.624,41.205,4.580,295.7,543.7,291.2
2023-12-08T02:00:07,2420,42.8014,5.9826,4330,272,186.383,57.084,13.310,36.045,36.625,41.207,4.582,295.7,543.8,291.2
2023-12-08T02:03:08,2420,42.8014,5.9826,4330,272,186.262,57.049,13.311,36.052,36.632,41.217,4.585,295.7,543.8,291.2
2023-12-08T02:06:07,2420,42.8014,5.9826,4330,272,186.328,57.072,13.314,36.047,36.627,41.212,4.585,295.8,543.8,291.1
2023-12-08T02:09:07,2420,42.8014,5.9826,4330,272,186.300,57.060,13.311,36.050,36.630,41.214,4.584,295.8,543.8,291.2
2023-12-08T02:12:07,2420,42.8014,5.9826,4330,272,186.155,57.017,13.312,36.059,36.639,41.219,4.580,295.8,543.8,291.2
2023-12-08T02:15:07,2420,42.8014,5.9826,4330,272,186.327,57.070,13.312,36.047,36.627,41.218,4.591,295.8,543.8,291.2
2023-12-08T02:18:08,2420,42.8014,5.9826,4330,272,186.635,57.166,13.314,36.027,36.607,41.198,4.591,295.8,543.8,291.1
2023-12-08T02:21:07,2420,42.8014,5.9826,4330,272,186.373,57.087,13.315,36.043,36.623,41.212,4.589,295.8,543.8,291.1
2023-12-08T02:24:07,2420,42.8014,5.9826,4330,272,186.403,57.099,13.317,36.040,36.620,41.202,4.582,295.8,543.7,291.0
2023-12-08T02:27:07,2420,42.8014,5.9826,4330,272,186.224,57.043,13.316,36.052,36.632,41.221,4.588,295.9,543.8,291.0
2023-12-08T02:30:08,2420,42.8014,5.9826,4330,272,186.308,57.065,13.313,36.048,36.628,41.208,4.580,295.8,543.8,291.1
2023-12-08T02:33:07,2420,42.8014,5.9826,4330,272,186.256,57.054,13.317,36.050,36.630,41.214,4.585,295.7,543.8,291.0
2023-12-08T02:36:07,2420,42.8014,5.9826,4330,272,186.279,57.058,13.314,36.049,36.629,41.213,4.584,295.8,543.8,291.1
2023-12-08T02:39:08,2420,42.8014,5.9826,4330,272,186.448,57.110,13.315,36.038,36.618,41.201,4.583,295.8,543.8,291.1
2023-12-08T02:42:08,2420,42.8014,5.9826,4330,272,186.165,57.025,13.316,36.056,36.636,41.219,4.584,295.8,543.7,291.0
2023-12-08T02:45:07,2420,42.8014,5.9826,4330,272,186.326,57.073,13.315,36.046,36.626,41.214,4.588,295.8,543.8,291.1
2023-12-08T02:48:07,2420,42.8014,5.9826,4330,272,186.366,57.087,13.316,36.043,36.623,41.208,4.586,295.8,543.7,291.0
2023-12-08T02:51:07,2420,42.8014,5.9826,4330,272,186.339,57.078,13.316,36.045,36.625,41.209,4.585,295.8,543.8,291.0
2023-12-08T02:54:08,2420,42.8014,5.9826,4330,272,186.175,57.031,13.319,36.054,36.634,41.220,4.586,295.7,543.8,290.9
2023-12-08T02:57:07,2420,42.8014,5.9826,4330,272,186.259,57.051,13.314,36.051,36.631,41.217,4.586,295.9,543.8,291.1
2023-12-08T03:00:07,2420,42.8014,5.9826,4330,272,186.216,57.040,13.316,36.053,36.633,41.216,4.583,295.8,543.8,291.0
2023-12-08T03:03:08,2420,42.8014,5.9826,4330,272,186.155,57.027,13.320,36.055,36.635,41.215,4.580,295.7,543.8,290.9
2023-12-08T03:06:07,2420,42.8014,5.9826,4330,272,186.489,57.120,13.313,36.036,36.616,41.198,4.582,295.7,543.8,291.1
2023-12-08T03:09:07,2420,42.8014,5.9826,4330,272,186.223,57.038,13.312,36.054,36.634,41.217,4.584,295.8,543.9,291.1
2023-12-08T03:12:07,2420,42.8014,5.9826,4330,272,186.458,57.112,13.314,36.038,36.618,41.204,4.586,295.8,543.9,291.1
2023-12-08T03:15:08,2420,42.8014,5.9826,4330,272,186.214,57.034,13.312,36.055,36.635,41.219,4.583,295.8,543.8,291.2
2023-12-08T03:18:08,2420,42.8014,5.9826,4330,272,186.584,57.149,13.313,36.030,36.610,41.197,4.587,295.8,543.8,291.1
2023-12-08T03:21:07,2420,42.8014,5.9826,4330,272,186.313,57.071,13.317,36.046,36.626,41.212,4.586,295.8,543.8,291.0
2023-12-08T03:24:07,2420,42.8014,5.9826,4330,272,186.321,57.076,13.319,36.044,36.624,41.211,4.587,295.8,543.9,290.9
2023-12-08T03:27:07,2420,42.8014,5.9826,4330,272,185.960,56.958,13.313,36.071,36.651,41.232,4.581,295.7,543.8,291.1
2023-12-08T03:30:08,2420,42.8014,5.9826,4330,272,186.549,57.136,13.311,36.034,36.614,41.196,4.582,295.7,543.8,291.2
2023-12-08T03:33:07,2420,42.8014,5.9826,4330,272,186.302,57.065,13.314,36.048,36.628,41.214,4.586,295.8,543.8,291.1
2023-12-08T03:36:07,2420,42.8014,5.9826,4330,272,186.228,57.039,13.312,36.054,36.634,41.220,4.586,295.7,543.8,291.2
2023-12-08T03:39:08,2420,42.8014,5.9826,4330,272,186.254,57.051,13.315,36.051,36.631,41.215,4.584,295.8,543.8,291.0
2023-12-08T03:42:07,2420,42.8014,5.9826,4330,272,186.250,57.055,13.319,36.049,36.629,41.217,4.588,295.8,543.7,290.9
2023-12-08T03:45:07,2420,42.8014,5.9826,4330,272,186.350,57.076,13.312,36.046,36.626,41.214,4.588,295.7,543.9,291.2
2023-12-08T03:48:07,2420,42.8014,5.9826,4330,272,186.302,57.071,13.319,36.046,36.626,41.209,4.583,295.7,543.8,290.9
2023-12-08T03:51:08,2420,42.8014,5.9826,4330,272,186.284,57.054,13.310,36.051,36.631,41.216,4.585,295.7,543.8,291.2
2023-12-08T03:54:07,2420,42.8014,5.9826,4330,272,186.407,57.095,13.313,36.041,36.621,41.207,4.585,295.7,543.8,291.1
2023-12-08T03:57:07,2420,42.8014,5.9826,4330,272,186.375,57.086,13.314,36.043,36.623,41.207,4.583,295.8,543.8,291.1
2023-12-08T04:00:07,2420,42.8014,5.9826,4330,272,186.318,57.067,13.312,36.048,36.628,41.210,4.582,295.8,543.8,291.2
2023-12-08T04:03:07,2420,42.8014,5.9826,4330,272,186.489,57.122,13.314,36.036,36.616,41.203,4.587,295.8,543.8,291.1
2023-12-08T04:06:07,2420,42.8014,5.9826,4330,272,186.421,57.102,13.315,36.040,36.620,41.205,4.585,295.8,543.9,291.1
2023-12-08T04:09:08,2420,42.8014,5.9826,4330,272,186.387,57.094,13.317,36.041,36.621,41.207,4.586,295.7,543.9,291.0
2023-12-08T04:12:07,2420,42.8014,5.9826,4330,272,186.486,57.119,13.312,36.037,36.617,41.200,4.584,295.8,543.8,291.1
2023-12-08T04:15:07,2420,42.8014,5.9826,4330,272,186.374,57.088,13.315,36.043,36.623,41.208,4.585,295.7,543.8,291.0
2023-12-08T04:18:07,2420,42.8014,5.9826,4330,272,186.329,57.075,13.316,36.046,36.626,41.211,4.585,295.7,543.8,291.0
2023-12-08T04:21:08,2420,42.8014,5.9826,4330,272,186.186,57.034,13.318,36.054,36.634,41.214,4.580,295.7,543.8,291.0
2023-12-08T04:24:08,2420,42.8014,5.9826,4330,272,186.540,57.147,13.322,36.029,36.609,41.193,4.584,295.7,543.9,290.8
2023-12-08T04:27:07,2420,42.8014,5.9826,4330,272,186.042,56.987,13.316,36.065,36.644,41.227,4.583,295.8,543.9,291.0
2023-12-08T04:30:07,2420,42.8014,5.9826,4330,272,186.564,57.148,13.317,36.030,36.610,41.199,4.589,295.8,543.9,291.0
2023-12-08T04:33:08,2420,42.8014,5.9826,4330,272,186.418,57.100,13.314,36.040,36.620,41.204,4.584,295.8,543.9,291.1
2023-12-08T04:36:07,2420,42.8014,5.9826,4330,272,186.616,57.162,13.315,36.028,36.608,41.190,4.583,295.7,543.8,291.1
2023-12-08T04:39:07,2420,42.8014,5.9826,4330,272,186.493,57.119,13.311,36.037,36.617,41.201,4.584,295.7,543.8,291.2
2023-12-08T04:42:07,2420,42.8014,5.9826,4330,272,186.541,57.139,13.315,36.032,36.612,41.193,4.581,295.7,543.9,291.1
2023-12-08T04:45:08,2420,42.8014,5.9826,4330,272,186.272,57.051,13.311,36.052,36.632,41.211,4.579,295.8,543.9,291.2
2023-12-08T04:48:07,2420,42.8014,5.9826,4330,272,186.439,57.105,13.313,36.040,36.620,41.207,4.587,295.8,543.8,291.1
2023-12-08T04:51:07,2420,42.8014,5.9826,4330,272,186.194,57.033,13.316,36.055,36.635,41.216,4.581,295.7,543.8,291.0
2023-12-08T04:54:08,2420,42.8014,5.9826,4330,272,186.491,57.118,13.311,36.038,36.618,41.198,4.580,295.7,543.9,291.2
2023-12-08T04:57:07,2420,42.8014,5.9826,4330,272,186.369,57.078,13.308,36.047,36.627,41.214,4.587,295.8,543.8,291.3
2023-12-08T05:00:07,2420,42.8014,5.9826,4330,272,186.404,57.085,13.306,36.045,36.625,41.209,4.584,295.7,543.9,291.4
2023-12-08T05:03:08,2420,42.8014,5.9826,4330,272,186.360,57.076,13.310,36.046,36.626,41.208,4.582,295.7,544.0,291.2
2023-12-08T05:06:07,2420,42.8014,5.9826,4330,272,186.438,57.102,13.311,36.041,36.621,41.208,4.587,295.7,543.9,291.2
2023-12-08T05:09:07,2420,42.8014,5.9826,4330,272,186.634,57.156,13.306,36.030,36.611,41.198,4.587,295.6,543.9,291.4
2023-12-08T05:12:07,2420,42.8014,5.9826,4330,272,186.622,57.156,13.309,36.029,36.609,41.191,4.582,295.6,543.9,291.3
2023-12-08T05:15:08,2420,42.8014,5.9826,4330,272,186.675,57.167,13.305,36.028,36.608,41.189,4.581,295.7,543.9,291.4
2023-12-08T05:18:07,2420,42.8014,5.9826,4330,272,186.460,57.106,13.308,36.041,36.621,41.205,4.584,295.7,543.9,291.3
2023-12-08T05:21:07,2420,42.8014,5.9826,4330,272,186.581,57.152,13.316,36.029,36.610,41.196,4.586,295.6,543.8,291.0
2023-12-08T05:24:07,2420,42.8014,5.9826,4330,272,186.630,57.154,13.306,36.030,36.610,41.194,4.583,295.7,543.9,291.4
2023-12-08T05:27:08,2420,42.8014,5.9826,4330,272,186.464,57.112,13.313,36.038,36.618,41.199,4.581,295.7,543.9,291.1
2023-12-08T05:30:07,2420,42.8014,5.9826,4330,272,186.495,57.115,13.308,36.039,36.619,41.204,4.586,295.6,543.8,291.3
2023-12-08T05:33:07,2420,42.8014,5.9826,4330,272,186.638,57.158,13.307,36.029,36.610,41.193,4.584,295.6,543.9,291.3
2023-12-08T05:36:07,2420,42.8014,5.9826,4330,272,186.494,57.116,13.308,36.038,36.618,41.198,4.580,295.6,543.9,291.3
2023-12-08T05:39:08,2420,42.8014,5.9826,4330,272,186.531,57.125,13.306,36.037,36.617,41.197,4.580,295.6,544.0,291.3
2023-12-08T05:42:07,2420,42.8014,5.9826,4330,272,186.415,57.094,13.310,36.042,36.622,41.209,4.586,295.6,543.9,291.2
2023-12-08T05:45:07,2420,42.8014,5.9826,4330,272,186.638,57.160,13.308,36.029,36.609,41.196,4.586,295.6,543.8,291.3
2023-12-08T05:48:07,2420,42.8014,5.9826,4330,272,186.848,57.226,13.310,36.014,36.595,41.182,4.587,295.6,543.9,291.2
2023-12-08T05:51:08,2420,42.8014,5.9826,4330,272,186.723,57.192,13.313,36.021,36.601,41.187,4.586,295.6,543.9,291.1
2023-12-08T05:54:07,2420,42.8014,5.9826,4330,272,186.496,57.122,13.313,36.036,36.616,41.198,4.582,295.6,543.8,291.1
2023-12-08T05:57:07,2420,42.8014,5.9826,4330,272,186.505,57.126,13.314,36.035,36.615,41.200,4.585,295.5,543.9,291.1
2023-12-08T06:00:07,2420,42.8014,5.9826,4330,272,186.434,57.104,13.313,36.040,36.620,41.203,4.583,295.7,543.9,291.1
2023-12-08T06:03:07,2420,42.8014,5.9826,4330,272,186.357,57.082,13.315,36.044,36.624,41.208,4.584,295.7,543.9,291.1
2023-12-08T06:06:07,2420,42.8014,5.9826,4330,272,186.725,57.203,13.321,36.017,36.597,41.183,4.586,295.6,543.8,290.9
2023-12-08T06:09:07,2420,42.8014,5.9826,4330,272,186.529,57.132,13.313,36.034,36.614,41.201,4.587,295.6,543.8,291.1
2023-12-08T06:12:08,2420,42.8014,5.9826,4330,272,186.628,57.160,13.311,36.029,36.609,41.193,4.584,295.7,543.8,291.2
2023-12-08T06:15:07,2420,42.8014,5.9826,4330,272,186.421,57.097,13.311,36.041,36.621,41.212,4.590,295.6,543.8,291.2
2023-12-08T06:18:07,2420,42.8014,5.9826,4330,272,186.460,57.111,13.313,36.038,36.618,41.204,4.585,295.6,543.9,291.1
2023-12-08T06:21:08,2420,42.8014,5.9826,4330,272,186.526,57.126,13.309,36.036,36.617,41.205,4.589,295.7,543.8,291.3
2023-12-08T06:24:07,2420,42.8014,5.9826,4330,272,186.406,57.090,13.310,36.044,36.624,41.205,4.581,295.7,543.8,291.2
2023-12-08T06:27:07,2420,42.8014,5.9826,4330,272,186.382,57.084,13.310,36.045,36.625,41.204,4.579,295.6,543.8,291.2
2023-12-08T06:30:07,2420,42.8014,5.9826,4330,272,186.253,57.043,13.309,36.054,36.634,41.214,4.580,295.7,543.8,291.3
2023-12-08T06:33:07,2420,42.8014,5.9826,4330,272,186.404,57.091,13.310,36.043,36.623,41.203,4.580,295.7,543.8,291.2
2023-12-08T06:36:07,2420,42.8014,5.9826,4330,272,186.430,57.097,13.309,36.043,36.623,41.207,4.585,295.6,543.9,291.3
2023-12-08T06:39:08,2420,42.8014,5.9826,4330,272,186.527,57.124,13.307,36.037,36.617,41.201,4.585,295.6,543.8,291.3
2023-12-08T06:42:07,2420,42.8014,5.9826,4330,272,186.371,57.077,13.308,36.047,36.627,41.207,4.580,295.7,543.8,291.3
2023-12-08T06:45:07,2420,42.8014,5.9826,4330,272,186.617,57.156,13.311,36.029,36.609,41.193,4.584,295.6,543.8,291.2
2023-12-08T06:48:07,2420,42.8014,5.9826,4330,272,186.757,57.195,13.307,36.022,36.602,41.186,4.583,295.6,543.8,291.3
2023-12-08T06:51:07,2420,42.8014,5.9826,4330,272,186.535,57.128,13.308,36.036,36.616,41.198,4.582,295.6,543.9,291.3
2023-12-08T06:54:08,2420,42.8014,5.9826,4330,272,186.456,57.102,13.307,36.042,36.622,41.201,4.579,295.6,543.9,291.3
2023-12-08T06:57:07,2420,42.8014,5.9826,4330,272,186.320,57.060,13.306,36.050,36.630,41.212,4.581,295.7,543.8,291.4
2023-12-08T07:00:07,2420,42.8014,5.9826,4330,272,186.702,57.178,13.307,36.026,36.606,41.189,4.583,295.7,543.9,291.3
2023-12-08T07:03:07,2420,42.8014,5.9826,4330,272,186.728,57.185,13.307,36.024,36.604,41.189,4.584,295.6,543.9,291.3
2023-12-08T07:06:07,2420,42.8014,5.9826,4330,272,186.622,57.153,13.307,36.031,36.611,41.190,4.579,295.7,543.9,291.3
2023-12-08T07:09:08,2420,42.8014,5.9826,4330,272,186.503,57.119,13.309,36.038,36.618,41.200,4.582,295.7,544.0,291.3
2023-12-08T07:12:07,2420,42.8014,5.9826,4330,272,186.701,57.178,13.307,36.026,36.606,41.189,4.583,295.6,543.8,291.3
2023-12-08T07:15:07,2420,42.8014,5.9826,4330,272,186.523,57.126,13.310,36.036,36.616,41.196,4.580,295.6,543.9,291.2
2023-12-08T07:18:08,2420,42.8014,5.9826,4330,272,186.623,57.157,13.310,36.029,36.610,41.193,4.583,295.7,543.9,291.2
2023-12-08T07:21:07,2420,42.8014,5.9826,4330,272,186.507,57.122,13.310,36.037,36.617,41.202,4.584,295.6,543.9,291.2
2023-12-08T07:24:07,2420,42.8014,5.9826,4330,272,186.925,57.249,13.309,36.010,36.590,41.177,4.587,295.6,543.8,291.3
2023-12-08T07:27:07,2420,42.8014,5.9826,4330,272,186.719,57.189,13.312,36.022,36.602,41.186,4.583,295.6,543.9,291.2
2023-12-08T07:30:08,2420,42.8014,5.9826,4330,272,186.665,57.168,13.308,36.027,36.607,41.191,4.583,295.6,543.9,291.3
2023-12-08T07:33:07,2420,42.8014,5.9826,4330,272,186.735,57.187,13.307,36.024,36.604,41.193,4.589,295.5,543.8,291.3
2023-12-08T07:36:07,2420,42.8014,5.9826,4330,272,186.513,57.123,13.309,36.037,36.617,41.198,4.582,295.6,543.9,291.3
2023-12-08T07:39:08,2420,42.8014,5.9826,4330,272,186.543,57.128,13.306,36.036,36.616,41.198,4.582,295.6,543.9,291.4
2023-12-08T07:42:07,2420,42.8014,5.9826,4330,272,186.547,57.131,13.308,36.035,36.615,41.200,4.584,295.6,543.8,291.3
2023-12-08T07:45:07,2420,42.8014,5.9826,4330,272,186.553,57.132,13.307,36.035,36.615,41.200,4.585,295.7,543.9,291.3
2023-12-08T07:48:07,2420,42.8014,5.9826,4330,272,186.720,57.189,13.312,36.022,36.602,41.189,4.587,295.6,543.9,291.2
2023-12-08T07:51:08,2420,42.8014,5.9826,4330,272,186.806,57.211,13.308,36.018,36.599,41.181,4.582,295.7,543.9,291.3
2023-12-08T07:54:07,2420,42.8014,5.9826,4330,272,186.284,57.054,13.310,36.051,36.631,41.209,4.578,295.7,543.8,291.2
2023-12-08T07:57:07,2420,42.8014,5.9826,4330,272,186.467,57.106,13.307,36.041,36.621,41.200,4.580,295.6,543.9,291.3
2023-12-08T08:00:08,2420,42.8014,5.9826,4330,272,186.873,57.232,13.308,36.014,36.594,41.175,4.581,295.6,543.9,291.3
2023-12-08T08:03:07,2420,42.8014,5.9826,4330,272,186.878,57.231,13.307,36.014,36.594,41.183,4.588,295.6,543.8,291.3
2023-12-08T08:06:07,2420,42.8014,5.9826,4330,272,186.506,57.118,13.307,36.038,36.618,41.200,4.582,295.6,543.9,291.3
2023-12-08T08:09:08,2420,42.8014,5.9826,4330,272,186.479,57.111,13.308,36.040,36.620,41.203,4.583,295.7,543.9,291.3
2023-12-08T08:12:07,2420,42.8014,5.9826,4330,272,186.603,57.152,13.310,36.030,36.610,41.191,4.581,295.6,543.9,291.2
2023-12-08T08:15:07,2420,42.8014,5.9826,4330,272,186.604,57.149,13.308,36.031,36.612,41.193,4.581,295.6,543.9,291.3
2023-12-08T08:18:07,2420,42.8014,5.9826,4330,272,186.660,57.167,13.308,36.028,36.608,41.188,4.580,295.5,543.9,291.3
2023-12-08T08:21:08,2420,42.8014,5.9826,4330,272,186.465,57.107,13.308,36.041,36.621,41.205,4.584,295.6,543.9,291.3
2023-12-08T08:24:07,2420,42.8014,5.9826,4330,272,186.426,57.093,13.306,36.044,36.624,41.202,4.578,295.7,543.9,291.3
2023-12-08T08:27:07,2420,42.8014,5.9826,4330,272,186.716,57.180,13.305,36.025,36.606,41.189,4.583,295.6,543.9,291.4
2023-12-08T08:30:07,2420,42.8014,5.9826,4330,272,186.718,57.184,13.308,36.024,36.604,41.186,4.582,295.5,543.9,291.3
2023-12-08T08:33:07,2420,42.8014,5.9826,4330,272,186.535,57.128,13.308,36.035,36.616,41.200,4.584,295.5,543.9,291.3
2023-12-08T08:36:08,2420,42.8014,5.9826,4330,272,186.503,57.121,13.310,36.037,36.617,41.197,4.580,295.6,544.0,291.2
2023-12-08T08:39:07,2420,42.8014,5.9826,4330,272,186.553,57.138,13.312,36.033,36.613,41.198,4.585,295.6,543.8,291.2
2023-12-08T08:42:07,2420,42.8014,5.9826,4330,272,186.509,57.121,13.309,36.038,36.618,41.199,4.581,295.6,543.9,291.3
2023-12-08T08:45:08,2420,42.8014,5.9826,4330,272,186.587,57.143,13.307,36.033,36.613,41.195,4.582,295.6,545.0,291.3
2023-12-08T08:48:07,2420,42.8014,5.9826,4330,272,186.653,57.160,13.305,36.030,36.610,41.191,4.581,295.7,545.1,291.4
2023-12-08T08:51:07,2420,42.8014,5.9826,4330,272,186.563,57.132,13.304,36.036,36.616,41.198,4.582,295.7,545.1,291.4
2023-12-08T08:54:08,2420,42.8014,5.9826,4330,272,186.576,57.139,13.307,36.034,36.614,41.200,4.586,295.7,545.0,291.3
2023-12-08T08:57:07,2420,42.8014,5.9826,4330,272,186.694,57.176,13.307,36.026,36.606,41.190,4.584,295.6,545.1,291.3
2023-12-08T09:00:07,2420,42.8014,5.9826,4330,272,186.701,57.176,13.305,36.027,36.607,41.193,4.586,295.7,545.1,291.4
2023-12-08T09:03:08,2420,42.8014,5.9826,4330,272,186.663,57.167,13.308,36.027,36.607,41.189,4.582,295.7,545.1,291.3
2023-12-08T09:06:07,2420,42.8014,5.9826,4330,272,186.572,57.143,13.311,36.033,36.613,41.196,4.584,295.7,545.1,291.2
2023-12-08T09:09:07,2420,42.8014,5.9826,4330,272,186.349,57.070,13.307,36.049,36.629,41.214,4.586,295.7,545.0,291.3
2023-12-08T09:12:07,2420,42.8014,5.9826,4330,272,186.680,57.172,13.308,36.026,36.606,41.190,4.584,295.7,545.1,291.3
2023-12-08T09:15:08,2420,42.8014,5.9826,4330,272,186.503,57.120,13.310,36.037,36.617,41.202,4.585,295.6,545.0,291.2
2023-12-08T09:18:07,2420,42.8014,5.9826,4330,272,186.343,57.068,13.307,36.049,36.629,41.211,4.582,295.6,545.1,291.3
2023-12-08T09:21:07,2420,42.8014,5.9826,4330,272,186.689,57.172,13.305,36.027,36.607,41.192,4.585,295.6,545.1,291.4
2023-12-08T09:24:07,2420,42.8014,5.9826,4330,272,186.555,57.131,13.305,36.036,36.616,41.201,4.585,295.6,545.1,291.4
2023-12-08T09:27:07,2420,42.8014,5.9826,4330,272,186.671,57.167,13.306,36.028,36.608,41.187,4.580,295.7,545.1,291.4
2023-12-08T09:30:07,2420,42.8014,5.9826,4330,272,186.554,57.131,13.306,36.035,36.615,41.195,4.580,295.7,545.0,291.4
2023-12-08T09:33:07,2420,42.8014,5.9826,4330,272,186.670,57.168,13.307,36.028,36.608,41.192,4.584,295.7,545.1,291.3
2023-12-08T09:36:07,2420,42.8014,5.9826,4330,272,186.604,57.152,13.310,36.030,36.610,41.195,4.586,295.8,545.1,291.2
2023-12-08T09:39:07,2420,42.8014,5.9826,4330,272,186.601,57.148,13.308,36.032,36.612,41.199,4.586,295.7,545.1,291.3
2023-12-08T09:42:08,2420,42.8014,5.9826,4330,272,186.741,57.190,13.307,36.023,36.603,41.190,4.587,295.6,545.0,291.3
2023-12-08T09:45:08,2420,42.8014,5.9826,4330,272,186.639,57.160,13.308,36.029,36.609,41.192,4.583,295.7,545.0,291.3
2023-12-08T09:48:08,2420,42.8014,5.9826,4330,272,186.434,57.101,13.311,36.041,36.621,41.206,4.585,295.6,545.1,291.2
2023-12-08T09:51:08,2420,42.8014,5.9826,4330,272,186.465,57.109,13.310,36.039,36.619,41.205,4.586,295.6,545.1,291.2
2023-12-08T09:54:08,2420,42.8014,5.9826,4330,272,186.461,57.107,13.309,36.040,36.620,41.202,4.582,295.6,545.0,291.2
2023-12-08T09:57:07,2420,42.8014,5.9826,4330,272,186.368,57.080,13.311,36.045,36.625,41.207,4.581,295.6,545.1,291.2
2023-12-08T10:00:07,2420,42.8014,5.9826,4330,272,186.591,57.149,13.311,36.031,36.611,41.198,4.586,295.7,545.0,291.2